Sexton Summit, OR

8:34 AM PST on December 13, 2019 (GMT -0800)
Sexton Summit

Weather History for KSXT - August, 2019

Change the Weather History Date:

Sunday, August 18, 2019

  Actual Average Record
Temperature  
Mean Temperature 66 °F -  
Max Temperature 81 °F 73 °F 91 °F (2016)
Min Temperature 54 °F 52 °F 42 °F (1996)
Cooling Degree Days 2    
Growing Degree Days 16 (Base 50)    
Moisture  
Dew Point 50 °F    
Average Humidity 57    
Maximum Humidity 78    
Minimum Humidity 38    
Precipitation  
Precipitation 0.00 in - - ()
Sea Level Pressure  
Sea Level Pressure 29.80 in    
Wind  
Wind Speed 4 mph (North)    
Max Wind Speed 10 mph    
Max Gust Speed -    
Visibility 10 miles    
Events      
Averages and records for this station are not official NWS values.
T = Trace of Precipitation, MM = Missing Value Source: NWS Daily Summary

Daily Weather History Graph

Daily Weather History Graph

Search for Another Location

Airport or City:

Astronomy

Aug. 18, 2019 Rise Set
Actual Time 6:23 AM PDT 8:10 PM PDT
Civil Twilight 5:53 AM PDT 8:40 PM PDT
Nautical Twilight 5:16 AM PDT 9:17 PM PDT
Astronomical Twilight 4:36 AM PDT 9:56 PM PDT
Moon 10:04 PM PDT (8/18) 9:16 AM PDT (8/18)
Length of Visible Light 14h 47m
Length of Day
13h 47m
Waning Gibbous, 91% of the Moon is Illuminated
Aug 18
Waning Gibbous
Aug 23
Last Quarter
Aug 30
New
Sep 5
First Quarter
Sep 13
Full

Hourly Weather History & Observations

Time (PDT) Temp. Dew Point Humidity Pressure Visibility Wind Dir Wind Speed Gust Speed Precip Events Conditions
12:56 AM 55.9 °F 46.0 °F 69% 29.82 in 10.0 mi NNW 8.1 mph - N/A   Clear
1:56 AM 54.0 °F 46.9 °F 77% 29.81 in 10.0 mi NNW 8.1 mph - N/A   Clear
2:56 AM 57.9 °F 45.0 °F 62% 29.78 in 10.0 mi North 4.6 mph - N/A   Clear
3:56 AM 61.0 °F 44.1 °F 54% 29.77 in 10.0 mi Calm Calm - N/A   Clear
4:56 AM 59.0 °F 45.0 °F 60% 29.77 in 10.0 mi Calm Calm - N/A   Clear
5:56 AM 60.1 °F 44.1 °F 55% 29.76 in 10.0 mi SE 3.5 mph - N/A   Clear
6:56 AM 59.0 °F 45.0 °F 60% 29.78 in 10.0 mi Calm Calm - N/A   Clear
7:56 AM 61.0 °F 46.0 °F 58% 29.80 in 10.0 mi ESE 4.6 mph - N/A   Clear
8:56 AM 64.0 °F 48.0 °F 56% 29.80 in 10.0 mi Calm Calm - N/A   Clear
9:56 AM 66.9 °F 50.0 °F 54% 29.80 in 10.0 mi Calm Calm - N/A   Clear
10:56 AM 69.1 °F 52.0 °F 54% 29.81 in 10.0 mi Variable 3.5 mph - N/A   Clear
11:56 AM 73.0 °F 52.0 °F 48% 29.82 in 10.0 mi Calm Calm - N/A   Clear
12:56 PM 73.0 °F 53.1 °F 49% 29.82 in 10.0 mi Calm Calm - N/A   Clear
1:56 PM 77.0 °F 50.0 °F 39% 29.81 in 10.0 mi Calm Calm - N/A   Clear
2:56 PM 78.1 °F 51.1 °F 39% 29.79 in 10.0 mi Calm Calm - N/A   Clear
3:56 PM 79.0 °F 51.1 °F 38% 29.77 in 10.0 mi Calm Calm - N/A   Clear
4:56 PM 79.0 °F 52.0 °F 39% 29.78 in 10.0 mi Calm Calm - N/A   Clear
5:56 PM 75.0 °F 52.0 °F 44% 29.78 in 10.0 mi Variable 3.5 mph - N/A   Clear
6:56 PM 71.1 °F 54.0 °F 55% 29.80 in 10.0 mi Variable 4.6 mph - N/A   Clear
7:56 PM 66.0 °F 54.0 °F 65% 29.81 in 10.0 mi NNW 8.1 mph - N/A   Clear
8:56 PM 63.0 °F 53.1 °F 70% 29.83 in 10.0 mi NNW 8.1 mph - N/A   Clear
9:56 PM 62.1 °F 52.0 °F 70% 29.84 in 10.0 mi North 10.4 mph - N/A   Clear
10:56 PM 61.0 °F 53.1 °F 75% 29.85 in 10.0 mi North 6.9 mph - N/A   Clear
11:56 PM 59.0 °F 52.0 °F 78% 29.85 in 10.0 mi NNW 8.1 mph - N/A   Clear